Header for Extended Forecast Station List Page

Search by: ID | Name | Date | Parm | Value | Avg | % Avg
Sort by: ID | Name | Date | Parm | Value | Avg | % Avg

Enter search or view all records.

Click on id for station plot
#IDNameDateParmValueAvg% Avg
0HWRI1BIG LOST-AT HOWELL RANCH NEAR CHILLY04-12-2021DISCHARGE (KAF)4215826
1MACI1BIG LOST-MACKAY RESERVOIR NEAR MACKAY04-12-2021INFLOW (KAF)3815824
2HALI1BIG WOOD-AT HAILEY04-12-2021DISCHARGE (KAF)8522438
3MAGI1BIG WOOD-MAGIC DAM04-12-2021INFLOW (KAF)4121719
4BITM8BITTERROOT-NEAR MISSOULA04-12-2021DISCHARGE (KAF)1040117788
5BONM8BLACKFOOT-NEAR BONNER04-12-2021DISCHARGE (KAF)64377883
6BIGI1BOISE-AT GLENWOOD BRIDGE04-12-2021DISCHARGE (KAF)38144685
7LUCI1BOISE-LUCKY PEAK DAM04-12-2021INFLOW (KAF)1032MM
8PARI1BOISE-NEAR PARMA04-12-2021DISCHARGE (KAF)35040287
9HOTI1BRUNEAU-NEAR HOT SPRINGS04-12-2021DISCHARGE (KAF)10416663
10BULO3BULLY CREEK-BULLY CREEK DAM04-12-2021INFLOW (KAF)1254
11BUDW1BUMPING-BUMPING LAKE DAM04-12-2021INFLOW (KAF)117109108
12CHDW1CHELAN-LAKE CHELAN DAM04-12-2021INFLOW (KAF)1067973110
13ABOM8CLARK FORK-ABOVE MISSOULA04-12-2021DISCHARGE (KAF)1141137483
14DLGM8CLARK FORK-AT DEER LODGE04-12-2021DISCHARGE (KAF)677590
15SRGM8CLARK FORK-AT ST REGIS04-12-2021DISCHARGE (KAF)2742346179
16BELM8CLARK FORK-BELOW MISSOULA04-12-2021DISCHARGE (KAF)2176259184
17CABI1CLARK FORK-CABINET GORGE DAM04-12-2021INFLOW (KAF)6684911773
18NOXM8CLARK FORK-NOXON RAPIDS DAM04-12-2021INFLOW (KAF)6069860471
19DRMM8CLARK FORK-NR DRUMMOND04-12-2021DISCHARGE (KAF)193MM
20CLUW1CLE ELUM-CLE ELUM LAKE04-12-2021INFLOW (KAF)457361127
21ORFI1CLEARWATER-AT OROFINO04-12-2021DISCHARGE (KAF)3581427884
22SPDI1CLEARWATER-AT SPALDING04-12-2021DISCHARGE (KAF)4890641476
23COEI1COEUR D ALENE-COEUR D ALENE LAKE04-12-2021INFLOW (KAF)1756226478
24CIBW1COLUMBIA-AT INTL BOUNDARY04-12-2021DISCHARGE (KAF)26985MM
25BONO3COLUMBIA-BONNEVILLE DAM04-12-2021INFLOW (KAF)482155984381
26CHJW1COLUMBIA-CHIEF JOSEPH DAM04-12-2021INFLOW (KAF)276683142288
27GCDW1COLUMBIA-GRAND COULEE DAM04-12-2021INFLOW (KAF)302374158673
28JDAO3COLUMBIA-JOHN DAY DAM04-12-2021INFLOW (KAF)471896472673
29MCDW1COLUMBIA-MCNARY DAM04-12-2021INFLOW (KAF)456036289373
30PRWW1COLUMBIA-PRIEST RAPIDS DAM04-12-2021INFLOW (KAF)325624220277
31RRHW1COLUMBIA-ROCKY REACH DAM04-12-2021INFLOW (KAF)310533457390
32TDAO3COLUMBIA-THE DALLES DAM04-12-2021INFLOW (KAF)473565803582
33WANW1COLUMBIA-WANAPUM DAM04-12-2021INFLOW (KAF)325664138279
34WELW1COLUMBIA-WELLS DAM04-12-2021INFLOW (KAF)301923403489
35DEDI1DEADWOOD-NEAR LOWMAN04-12-2021INFLOW (KAF)7912862
36MODO3DESCHUTES-AT MOODY NR BIGGS04-12-2021DISCHARGE (KAF)1170130590
37ARDW1ENTIAT-NEAR ARDENVOIR04-12-2021DISCHARGE (KAF)219193113
38CHEI1FALL RIVER-NEAR CHESTER04-12-2021DISCHARGE (KAF)24530879
39CFMM8FLATHEAD-AT COLUMBIA FALLS04-12-2021DISCHARGE (KAF)3337408082
40KERM8FLATHEAD-SELI’Š KSANKA QLISPE’ DAM04-12-2021INFLOW (KAF)3739508274
41TRYO3GRANDE RONDE-TROY04-12-2021DISCHARGE (KAF)975110488
42REXI1HENRYS FORK-AT REXBURG04-12-2021DISCHARGE (KAF)55370179
43ANTI1HENRYS FORK-AT ST. ANTHONY04-12-2021DISCHARGE (KAF)54560989
44IPDI1HENRYS FORK-ISLAND PARK DAM04-12-2021INFLOW (KAF)15120773
45HODO3HOOD-NEAR TUCKER BRIDGE04-12-2021DISCHARGE (KAF)197197100
46SERO3JOHN DAY-AT SERVICE CK04-12-2021DISCHARGE (KAF)51566078
47KADW1KACHESS-KACHESS DAM04-12-2021INFLOW (KAF)11295118
48LAUW1KETTLE-AT LAURIER04-12-2021DISCHARGE (KAF)1316167978
49PITW1KLICKITAT-NEAR PITT04-12-2021DISCHARGE (KAF)39843891
50BFEI1KOOTENAI-AT BONNERS FERRY04-12-2021STAGE (FT)MMM
51LEOI1KOOTENAI-AT LEONIA04-12-2021DISCHARGE (KAF)3685523770
52LYDM8KOOTENAI-LIBBY DAM04-12-2021INFLOW (KAF)4686572782
53LWRI1LITTLE WOOD-LITTLE WOOD DAM04-12-2021INFLOW (KAF)227131
54BERO3MALHEUR-AGENCY VALLEY DAM04-12-2021INFLOW (KAF)203461
55WRMO3MALHEUR-WARM SPRINGS DAM04-12-2021INFLOW (KAF)202773
56MYKO3MCKAY CREEK-NEAR PILOT ROCK04-12-2021DISCHARGE (KAF)111576
57PATW1METHOW-NEAR PATEROS04-12-2021DISCHARGE (KAF)921821112
58WGCM8MF FLATHEAD-NEAR WEST GLACIER04-12-2021DISCHARGE (KAF)1300152985
59CLFW1NACHES-NEAR CLIFFDEL04-12-2021DISCHARGE (KAF)404338120
60NACW1NACHES-NEAR NACHES04-12-2021DISCHARGE (KAF)563469120
61DWRI1NF CLEARWATER-DWORSHAK DAM04-12-2021INFLOW (KAF)1987245781
62FCFM8NF FLATHEAD-NEAR COLUMBIA FALLS04-12-2021DISCHARGE (KAF)1008157264
63MONO3NF JOHN DAY-AT MONUMENT04-12-2021DISCHARGE (KAF)41047287
64CSDI1NF PAYETTE-CASCADE DAM04-12-2021INFLOW (KAF)30345666
65TONW1OKANOGAN-NEAR TONASKET04-12-2021DISCHARGE (KAF)16021411114
66OWYO3OWYHEE-OWYHEE DAM04-12-2021INFLOW (KAF)7424231
67EMMI1PAYETTE-NEAR EMMETT04-12-2021DISCHARGE (KAF)622114055
68ALFW1PEND OREILLE-ALBENI FALLS DAM04-12-2021INFLOW (KAF)76071058972
69HOPI1PEND OREILLE-PEND OREILLE LAKE NR HOPE04-12-2021LAKE ELEVATION (FT)MMM
70PIHI1PORTNEUF-AT POCATELLO04-12-2021DISCHARGE (KAF)316945
71PRTI1PRIEST-NEAR PRIEST RIVER04-12-2021DISCHARGE (KAF)49873468
72RCCM8ROCK CREEK-NEAR CLINTON04-12-2021DISCHARGE (KAF)259252103
73WHBI1SALMON-AT WHITEBIRD04-12-2021DISCHARGE (KAF)3280554759
74ARAI1SF BOISE-ANDERSON RANCH DAM04-12-2021INFLOW (KAF)24148050
75HHWM8SF FLATHEAD-HUNGRY HORSE DAM04-12-2021INFLOW (KAF)1537186982
76PLDI1SF SNAKE-PALISADES DAM04-12-2021INFLOW (KAF)1983293268
77SIFI1SNAKE-AB EAGLE ROCK NR IDAHO FALLS04-12-2021DISCHARGE (KAF)2057245984
78AFRI1SNAKE-AMERICAN FALLS RESERVOIR04-12-2021INFLOW (KAF)1742229676
79SNAI1SNAKE-AT BLACKFOOT04-12-2021DISCHARGE (KAF)1291177673
80MILI1SNAKE-AT MILNER04-12-2021DISCHARGE (KAF)M321M
81WEII1SNAKE-AT WEISER04-12-2021DISCHARGE (KAF)2879451564
82SWAI1SNAKE-BELOW SWAN FALLS04-12-2021DISCHARGE (KAF)1502227866
83BRNI1SNAKE-BROWNLEE DAM04-12-2021INFLOW (KAF)3208486866
84IHDW1SNAKE-ICE HARBOR DAM04-12-2021INFLOW (KAF)121781878965
85JLKW4SNAKE-JACKSON LAKE AT DAM04-12-2021INFLOW (KAF)51775369
86LGSW1SNAKE-LITTLE GOOSE DAM04-12-2021INFLOW (KAF)120611884564
87LGDW1SNAKE-LOWER GRANITE DAM04-12-2021INFLOW (KAF)121161883264
88LMNW1SNAKE-LOWER MONUMENTAL DAM04-12-2021INFLOW (KAF)121751890964
89ALPW4SNAKE-NEAR ALPINE04-12-2021DISCHARGE (KAF)1395204368
90ANAW1SNAKE-NEAR ANATONE04-12-2021DISCHARGE (KAF)72261240658
91BFTI1SNAKE-NEAR BLACKFOOT04-12-2021DISCHARGE (KAF)1242167274
92HEII1SNAKE-NEAR HEISE04-12-2021DISCHARGE (KAF)2848302294
93JKSW4SNAKE-NEAR JACKSON04-12-2021DISCHARGE (KAF)1149158173
94SHYI1SNAKE-NEAR SHELLEY04-12-2021DISCHARGE (KAF)1808225880
95LLKW1SPOKANE-AT LONGLAKE04-12-2021INFLOW (KAF)1879277268
96SPOW1SPOKANE-AT SPOKANE04-12-2021DISCHARGE (KAF)1694MM
97SJMI1ST JOE-AT ST MARIES04-12-2021STAGE (FT)MMM
98SATI1ST MARIES-NEAR SANTA04-12-2021DISCHARGE (KAF)8011371
99STRM8ST. REGIS-NEAR ST. REGIS04-12-2021DISCHARGE (KAF)19223582
100TNAW1TEANAWAY-BELOW FORKS04-12-2021DISCHARGE (KAF)137100138
101TEAI1TETON-NEAR ST. ANTHONY04-12-2021DISCHARGE (KAF)28233883
102RILW1TIETON-RIMROCK LAKE NEAR RIMROCK04-12-2021INFLOW (KAF)208185113
103PDTO3UMATILLA-AT PENDLETON04-12-2021DISCHARGE (KAF)157106148
104GIBO3UMATILLA-NEAR GIBBON04-12-2021DISCHARGE (KAF)8157143
105UMAO3UMATILLA-NEAR UMATILLA04-12-2021DISCHARGE (KAF)12658218
106TCHW1WALLA WALLA-NEAR TOUCHET04-12-2021DISCHARGE (KAF)888999
107WSRI1WEISER-NEAR WEISER04-12-2021DISCHARGE (KAF)22032069
108PESW1WENATCHEE-AT PESHASTIN04-12-2021DISCHARGE (KAF)14841376108
109UNDW1WHITE SALMON-NEAR UNDERWOOD04-12-2021DISCHARGE (KAF)25629686
110RIDI1WILLOW CREEK-RIRIE DAM04-12-2021INFLOW (KAF)193948
111EASW1YAKIMA-AT EASTON04-12-2021DISCHARGE (KAF)10993117
112KIOW1YAKIMA-AT KIONA04-12-2021DISCHARGE (KAF)796780102
113UMTW1YAKIMA-AT UMTANUM04-12-2021DISCHARGE (KAF)847791107
114KEDW1YAKIMA-KEECHELUS LAKE04-12-2021INFLOW (KAF)127102124
115PARW1YAKIMA-NEAR PARKER04-12-2021DISCHARGE (KAF)525422124